| time (UTC) | temp F | wind direction | speed knots | gust knots | rain 1hr in | rain 24hr in | rain mn in | humidity % | barometer mb |
| 20260507192716 | 61 | 295 | 3.5 | 7.8 | 0.00 | 0.21 | 0.01 | 33 | 1004.5 |
| 20260507192215 | 61 | 286 | 3.5 | 7.8 | 0.00 | 0.21 | 0.01 | 34 | 1004.4 |
| 20260507191716 | 61 | 305 | 2.6 | 7.8 | 0.00 | 0.22 | 0.01 | 37 | 1004.4 |
| 20260507191435 | 61 | 349 | 2.6 | 7.8 | 0.00 | 0.22 | 0.01 | 35 | 1004.6 |
| 20260507190716 | 60 | 326 | 2.6 | 7.8 | 0.00 | 0.23 | 0.01 | 35 | 1004.6 |
| 20260507190216 | 61 | 43 | 3.5 | 7.8 | 0.00 | 0.23 | 0.01 | 34 | 1004.7 |
| 20260507185716 | 61 | 60 | 3.5 | 12.2 | 0.00 | 0.24 | 0.01 | 33 | 1004.7 |
| 20260507185216 | 62 | 326 | 3.5 | 12.2 | 0.00 | 0.24 | 0.01 | 35 | 1004.7 |
| 20260507184716 | 62 | 321 | 3.5 | 8.7 | 0.00 | 0.25 | 0.01 | 34 | 1004.6 |
| 20260507184216 | 62 | 328 | 2.6 | 8.7 | 0.00 | 0.25 | 0.01 | 35 | 1004.7 |
| 20260507183936 | 62 | 339 | 3.5 | 9.6 | 0.00 | 0.26 | 0.01 | 35 | 1004.6 |
| 20260507183213 | 62 | 327 | 3.5 | 9.6 | 0.00 | 0.26 | 0.01 | 33 | 1004.7 |
| 20260507182713 | 62 | 346 | 3.5 | 8.7 | 0.00 | 0.27 | 0.01 | 35 | 1004.7 |
| 20260507182213 | 62 | 235 | 3.5 | 13.0 | 0.00 | 0.27 | 0.01 | 35 | 1004.7 |
| 20260507181711 | 62 | 330 | 3.5 | 13.0 | 0.00 | 0.28 | 0.01 | 34 | 1004.7 |
| 20260507181434 | 62 | 319 | 3.5 | 13.0 | 0.00 | 0.30 | 0.01 | 35 | 1004.7 |
| 20260507180712 | 62 | 39 | 3.5 | 9.6 | 0.00 | 0.30 | 0.01 | 33 | 1004.8 |
| 20260507180223 | 62 | 284 | 3.5 | 10.4 | 0.00 | 0.30 | 0.01 | 35 | 1004.7 |
| 20260507175710 | 62 | 257 | 4.3 | 10.4 | 0.00 | 0.30 | 0.01 | 36 | 1004.7 |
| 20260507175211 | 62 | 341 | 4.3 | 10.4 | 0.00 | 0.30 | 0.01 | 35 | 1004.6 |
| 20260507174711 | 62 | 93 | 3.5 | 9.6 | 0.00 | 0.30 | 0.01 | 37 | 1004.6 |
| 20260507174212 | 62 | 321 | 3.5 | 9.6 | 0.00 | 0.30 | 0.01 | 41 | 1004.6 |
| 20260507173712 | 62 | 22 | 2.6 | 9.6 | 0.00 | 0.30 | 0.01 | 39 | 1004.6 |
| 20260507173212 | 62 | 68 | 1.7 | 7.0 | 0.00 | 0.30 | 0.01 | 37 | 1004.7 |
| 20260507173158 | 61 | 318 | 3.5 | 7.8 | 0.00 | 0.30 | 0.01 | 39 | 1004.7 |
| 20260507172425 | 61 | 256 | 3.5 | 7.8 | 0.00 | 0.30 | 0.01 | 39 | 1004.8 |
| 20260507171709 | 61 | 183 | 3.5 | 7.8 | 0.00 | 0.30 | 0.01 | 40 | 1005.0 |
| 20260507171209 | 61 | 316 | 3.5 | 8.7 | 0.00 | 0.30 | 0.01 | 39 | 1005.1 |
| 20260507170709 | 60 | 55 | 3.5 | 8.7 | 0.00 | 0.30 | 0.01 | 40 | 1005.1 |
| 20260507170209 | 60 | 42 | 2.6 | 8.7 | 0.00 | 0.30 | 0.01 | 42 | 1005.2 |
| 20260507165709 | 60 | 218 | 1.7 | 8.7 | 0.00 | 0.30 | 0.01 | 46 | 1005.4 |
| 20260507165210 | 60 | 305 | 1.7 | 7.8 | 0.00 | 0.30 | 0.01 | 48 | 1005.4 |
| 20260507164709 | 59 | 189 | 2.6 | 7.0 | 0.00 | 0.30 | 0.01 | 48 | 1005.4 |
| 20260507164428 | 59 | 349 | 2.6 | 13.9 | 0.00 | 0.30 | 0.01 | 49 | 1005.5 |
| 20260507163709 | 59 | 314 | 3.5 | 13.9 | 0.00 | 0.30 | 0.01 | 48 | 1005.6 |
| 20260507163209 | 59 | 322 | 3.5 | 13.9 | 0.00 | 0.30 | 0.01 | 50 | 1005.5 |
| 20260507162926 | 60 | 33 | 2.6 | 9.6 | 0.00 | 0.30 | 0.01 | 54 | 1005.6 |
| 20260507162207 | 61 | 2 | 2.6 | 8.7 | 0.00 | 0.30 | 0.01 | 50 | 1005.5 |
| 20260507161707 | 60 | 157 | 2.6 | 7.0 | 0.00 | 0.30 | 0.01 | 55 | 1005.6 |
| 20260507161208 | 59 | 351 | 2.6 | 9.6 | 0.00 | 0.30 | 0.01 | 52 | 1005.7 |
| 20260507160708 | 59 | 346 | 2.6 | 9.6 | 0.00 | 0.30 | 0.01 | 54 | 1005.7 |
| 20260507160204 | 58 | 318 | 2.6 | 8.7 | 0.00 | 0.30 | 0.01 | 53 | 1005.9 |
| 20260507155704 | 57 | 41 | 2.6 | 8.7 | 0.00 | 0.30 | 0.01 | 54 | 1006.0 |
| 20260507155204 | 58 | 282 | 2.6 | 8.7 | 0.00 | 0.30 | 0.01 | 55 | 1006.0 |
| 20260507154704 | 58 | 319 | 2.6 | 7.8 | 0.00 | 0.30 | 0.01 | 55 | 1006.0 |
| 20260507154204 | 59 | 348 | 1.7 | 6.1 | 0.00 | 0.30 | 0.01 | 55 | 1006.0 |
| 20260507153931 | 58 | 50 | 2.6 | 7.8 | 0.00 | 0.30 | 0.01 | 56 | 1006.1 |
| 20260507153204 | 59 | 58 | 2.6 | 7.8 | 0.00 | 0.30 | 0.01 | 55 | 1006.2 |
| 20260507152705 | 59 | 333 | 2.6 | 11.3 | 0.00 | 0.30 | 0.01 | 54 | 1006.2 |
| 20260507152646 | 59 | 135 | 2.6 | 11.3 | 0.00 | 0.30 | 0.01 | 55 | 1006.2 |
| 20260507152153 | 59 | 63 | 2.6 | 9.6 | 0.00 | 0.30 | 0.01 | 52 | 1006.3 |
| 20260507151203 | 59 | 29 | 2.6 | 8.7 | 0.00 | 0.30 | 0.01 | 50 | 1006.3 |
| 20260507150701 | 59 | 107 | 1.7 | 7.8 | 0.00 | 0.30 | 0.01 | 51 | 1006.4 |
| 20260507150643 | 58 | 317 | 2.6 | 9.6 | 0.00 | 0.30 | 0.01 | 53 | 1006.5 |
| 20260507145701 | 58 | 313 | 2.6 | 9.6 | 0.00 | 0.30 | 0.01 | 54 | 1006.5 |
| 20260507145422 | 57 | 304 | 2.6 | 7.0 | 0.00 | 0.30 | 0.01 | 54 | 1006.5 |
| 20260507144702 | 57 | 40 | 2.6 | 7.8 | 0.00 | 0.30 | 0.01 | 56 | 1006.5 |
| 20260507144202 | 57 | 239 | 2.6 | 7.8 | 0.00 | 0.30 | 0.01 | 57 | 1006.5 |
| 20260507143919 | 58 | 279 | 2.6 | 7.0 | 0.00 | 0.30 | 0.01 | 58 | 1006.4 |
| 20260507143202 | 58 | 307 | 2.6 | 7.0 | 0.00 | 0.30 | 0.01 | 54 | 1006.4 |
| 20260507142703 | 58 | 302 | 2.6 | 9.6 | 0.00 | 0.30 | 0.01 | 55 | 1006.3 |
| 20260507142201 | 57 | 334 | 2.6 | 9.6 | 0.00 | 0.30 | 0.01 | 57 | 1006.3 |
| 20260507141701 | 57 | 40 | 1.7 | 8.7 | 0.00 | 0.30 | 0.01 | 56 | 1006.4 |
| 20260507141201 | 57 | 323 | 2.6 | 7.8 | 0.00 | 0.30 | 0.01 | 54 | 1006.4 |
| 20260507140702 | 57 | 22 | 2.6 | 7.8 | 0.00 | 0.30 | 0.01 | 57 | 1006.4 |
| 20260507140202 | 57 | 42 | 2.6 | 7.0 | 0.00 | 0.30 | 0.01 | 55 | 1006.4 |
| 20260507135702 | 57 | 289 | 1.7 | 9.6 | 0.00 | 0.30 | 0.01 | 57 | 1006.4 |
| 20260507135427 | 57 | 148 | 1.7 | 9.6 | 0.00 | 0.30 | 0.01 | 57 | 1006.5 |
| 20260507134701 | 57 | 311 | 1.7 | 7.0 | 0.00 | 0.30 | 0.01 | 59 | 1006.5 |
| 20260507134202 | 57 | 317 | 1.7 | 5.2 | 0.00 | 0.30 | 0.01 | 60 | 1006.6 |
| 20260507133702 | 56 | 326 | 1.7 | 6.1 | 0.00 | 0.30 | 0.01 | 59 | 1006.7 |
| 20260507133202 | 56 | 0 | 1.7 | 6.1 | 0.00 | 0.30 | 0.01 | 62 | 1006.8 |
| 20260507132928 | 56 | 354 | 1.7 | 7.0 | 0.00 | 0.30 | 0.01 | 61 | 1006.9 |
| 20260507132202 | 55 | 341 | 1.7 | 7.0 | 0.00 | 0.30 | 0.01 | 62 | 1006.9 |
| 20260507131702 | 55 | 331 | 1.7 | 5.2 | 0.00 | 0.30 | 0.01 | 64 | 1006.9 |
| 20260507131202 | 54 | 132 | 1.7 | 7.8 | 0.00 | 0.30 | 0.01 | 64 | 1006.9 |
| 20260507130702 | 54 | 315 | 2.6 | 7.8 | 0.00 | 0.30 | 0.01 | 65 | 1006.8 |
| 20260507130202 | 54 | 297 | 2.6 | 7.8 | 0.00 | 0.30 | 0.01 | 63 | 1006.9 |
| 20260507125702 | 54 | 0 | 1.7 | 7.0 | 0.00 | 0.30 | 0.01 | 66 | 1006.9 |
| 20260507125202 | 53 | 48 | 2.6 | 7.0 | 0.00 | 0.30 | 0.01 | 62 | 1007.0 |
| 20260507124702 | 53 | 301 | 2.6 | 7.0 | 0.00 | 0.30 | 0.01 | 64 | 1007.1 |
| 20260507124202 | 53 | 285 | 1.7 | 6.1 | 0.00 | 0.30 | 0.01 | 64 | 1007.1 |
| 20260507123702 | 52 | 303 | 2.6 | 7.8 | 0.00 | 0.30 | 0.01 | 67 | 1007.2 |
| 20260507123202 | 52 | 10 | 2.6 | 7.8 | 0.00 | 0.30 | 0.01 | 68 | 1007.3 |
| 20260507122703 | 52 | 1 | 1.7 | 5.2 | 0.00 | 0.30 | 0.01 | 71 | 1007.3 |
| 20260507122203 | 51 | 1 | 2.6 | 5.2 | 0.00 | 0.30 | 0.01 | 71 | 1007.3 |
| 20260507121702 | 51 | 313 | 1.7 | 5.2 | 0.00 | 0.30 | 0.01 | 75 | 1007.3 |
| 20260507121202 | 51 | 348 | 1.7 | 5.2 | 0.00 | 0.30 | 0.01 | 75 | 1007.3 |
| 20260507120714 | 50 | 28 | 1.7 | 3.5 | 0.00 | 0.30 | 0.01 | 77 | 1007.4 |
| 20260507120202 | 50 | 313 | 1.7 | 3.5 | 0.00 | 0.30 | 0.01 | 79 | 1007.4 |
| 20260507115702 | 50 | 35 | 1.7 | 4.3 | 0.00 | 0.30 | 0.01 | 79 | 1007.4 |
| 20260507115202 | 49 | 43 | 1.7 | 4.3 | 0.00 | 0.30 | 0.01 | 80 | 1007.3 |
| 20260507114702 | 49 | 306 | 1.7 | 6.1 | 0.00 | 0.30 | 0.01 | 80 | 1007.3 |
| 20260507114202 | 49 | 9 | 2.6 | 6.1 | 0.00 | 0.30 | 0.01 | 81 | 1007.3 |
| 20260507113701 | 49 | 342 | 2.6 | 6.1 | 0.00 | 0.30 | 0.01 | 82 | 1007.2 |
| 20260507113202 | 49 | 356 | 1.7 | 3.5 | 0.00 | 0.30 | 0.01 | 83 | 1007.3 |
| 20260507112702 | 48 | 338 | 0.9 | 3.5 | 0.00 | 0.30 | 0.01 | 84 | 1007.3 |
| 20260507112202 | 48 | 323 | 1.7 | 3.5 | 0.00 | 0.30 | 0.01 | 84 | 1007.4 |
| 20260507111702 | 48 | 302 | 1.7 | 3.5 | 0.00 | 0.30 | 0.01 | 85 | 1007.3 |
| 20260507111203 | 48 | 4 | 0.9 | 3.5 | 0.00 | 0.30 | 0.01 | 85 | 1007.2 |
| 20260507110702 | 48 | 346 | 1.7 | 4.3 | 0.00 | 0.30 | 0.01 | 85 | 1007.2 |
| 20260507110202 | 48 | 0 | 1.7 | 4.3 | 0.00 | 0.30 | 0.01 | 87 | 1007.1 |
| 20260507105702 | 48 | 303 | 0.9 | 2.6 | 0.00 | 0.30 | 0.01 | 87 | 1007.1 |
| 20260507105202 | 48 | 0 | 0.9 | 2.6 | 0.00 | 0.30 | 0.01 | 88 | 1007.2 |
| 20260507104703 | 47 | 323 | 0.9 | 2.6 | 0.00 | 0.30 | 0.01 | 87 | 1007.1 |
| 20260507104203 | 47 | 0 | 0.9 | 2.6 | 0.00 | 0.30 | 0.01 | 87 | 1007.1 |
| 20260507103702 | 47 | 318 | 0.0 | 2.6 | 0.00 | 0.30 | 0.01 | 88 | 1007.2 |
| 20260507103202 | 48 | 350 | 0.9 | 5.2 | 0.00 | 0.30 | 0.01 | 88 | 1007.2 |
| 20260507102701 | 48 | 319 | 1.7 | 5.2 | 0.00 | 0.30 | 0.01 | 88 | 1007.2 |
| 20260507102202 | 48 | 314 | 1.7 | 5.2 | 0.00 | 0.30 | 0.01 | 87 | 1007.0 |
| 20260507101702 | 48 | 310 | 1.7 | 3.5 | 0.00 | 0.30 | 0.01 | 88 | 1007.0 |
| 20260507101418 | 48 | 316 | 1.7 | 3.5 | 0.00 | 0.30 | 0.01 | 88 | 1007.2 |
| 20260507100702 | 48 | 350 | 0.9 | 1.7 | 0.00 | 0.30 | 0.01 | 88 | 1007.3 |
| 20260507100215 | 48 | 342 | 0.9 | 2.6 | 0.00 | 0.30 | 0.01 | 88 | 1007.2 |
| 20260507095702 | 48 | 0 | 0.9 | 3.5 | 0.00 | 0.30 | 0.01 | 88 | 1007.2 |
| 20260507095424 | 48 | 325 | 0.9 | 3.5 | 0.00 | 0.30 | 0.01 | 88 | 1007.1 |
| 20260507094702 | 48 | 15 | 0.9 | 5.2 | 0.00 | 0.30 | 0.01 | 89 | 1007.0 |
| 20260507094203 | 48 | 14 | 0.9 | 5.2 | 0.00 | 0.30 | 0.01 | 89 | 1006.9 |
| 20260507093702 | 48 | 307 | 0.9 | 5.2 | 0.00 | 0.30 | 0.01 | 89 | 1006.9 |
| 20260507093204 | 48 | 356 | 1.7 | 3.5 | 0.00 | 0.30 | 0.01 | 90 | 1007.0 |
| 20260507092702 | 48 | 0 | 0.9 | 2.6 | 0.00 | 0.30 | 0.01 | 89 | 1007.0 |
| 20260507092203 | 48 | 326 | 0.9 | 1.7 | 0.00 | 0.30 | 0.01 | 89 | 1007.1 |
| 20260507091702 | 48 | 295 | 0.9 | 2.6 | 0.00 | 0.30 | 0.01 | 90 | 1007.0 |
| 20260507091202 | 48 | 316 | 1.7 | 2.6 | 0.01 | 0.30 | 0.01 | 90 | 1006.6 |
| 20260507090929 | 48 | 359 | 0.9 | 2.6 | 0.01 | 0.30 | 0.01 | 90 | 1007.2 |
| 20260507090203 | 48 | 5 | 0.9 | 3.5 | 0.01 | 0.30 | 0.01 | 89 | 1007.0 |
| 20260507085702 | 48 | 307 | 1.7 | 3.5 | 0.01 | 0.30 | 0.01 | 90 | 1006.7 |
| 20260507085203 | 48 | 46 | 1.7 | 3.5 | 0.01 | 0.30 | 0.01 | 90 | 1006.5 |
| 20260507084702 | 48 | 343 | 1.7 | 3.5 | 0.01 | 0.30 | 0.01 | 89 | 1006.5 |
| 20260507084204 | 48 | 48 | 1.7 | 3.5 | 0.01 | 0.30 | 0.01 | 90 | 1006.6 |
| 20260507083703 | 48 | 340 | 1.7 | 3.5 | 0.01 | 0.30 | 0.01 | 90 | 1006.5 |
| 20260507083203 | 48 | 312 | 1.7 | 3.5 | 0.01 | 0.30 | 0.01 | 90 | 1006.5 |
| 20260507082702 | 49 | 318 | 1.7 | 3.5 | 0.01 | 0.30 | 0.01 | 90 | 1006.5 |
| 20260507082202 | 49 | 324 | 0.9 | 2.6 | 0.01 | 0.30 | 0.01 | 89 | 1006.2 |
| 20260507081702 | 49 | 319 | 1.7 | 4.3 | 0.01 | 0.30 | 0.01 | 89 | 1006.3 |
| 20260507081649 | 49 | 0 | 1.7 | 4.3 | 0.00 | 0.30 | 0.00 | 89 | 1006.6 |
| 20260507080928 | 49 | 332 | 1.7 | 4.3 | 0.00 | 0.30 | 0.00 | 89 | 1006.8 |
| 20260507080202 | 49 | 321 | 1.7 | 5.2 | 0.00 | 0.30 | 0.00 | 88 | 1006.8 |
| 20260507075922 | 49 | 303 | 1.7 | 7.0 | 0.00 | 0.29 | 0.00 | 87 | 1006.5 |
| 20260507075202 | 49 | 0 | 1.7 | 7.0 | 0.00 | 0.29 | 0.00 | 87 | 1006.4 |
| 20260507074702 | 49 | 43 | 1.7 | 6.1 | 0.00 | 0.29 | 0.00 | 87 | 1006.4 |
| 20260507074202 | 49 | 0 | 1.7 | 6.1 | 0.00 | 0.29 | 0.00 | 87 | 1006.3 |
| 20260507073702 | 50 | 317 | 1.7 | 8.7 | 0.00 | 0.29 | 0.00 | 88 | 1006.2 |
| 20260507073201 | 50 | 0 | 1.7 | 8.7 | 0.00 | 0.29 | 0.00 | 87 | 1006.3 |
| 20260507072659 | 50 | 293 | 1.7 | 7.0 | 0.00 | 0.29 | 0.00 | 88 | 1006.1 |
| 20260507072200 | 50 | 38 | 1.7 | 5.2 | 0.00 | 0.29 | 0.00 | 89 | 1006.1 |
| 20260507071700 | 50 | 330 | 1.7 | 5.2 | 0.00 | 0.29 | 0.00 | 89 | 1006.3 |
| 20260507071200 | 50 | 310 | 1.7 | 5.2 | 0.00 | 0.29 | 0.00 | 89 | 1006.3 |
| 20260507070700 | 50 | 309 | 1.7 | 6.1 | 0.00 | 0.29 | 0.00 | 90 | 1006.1 |
| 20260507070424 | 50 | 32 | 2.6 | 7.0 | 0.00 | 0.29 | 0.00 | 89 | 1005.9 |
| 20260507065700 | 50 | 304 | 1.7 | 7.0 | 0.00 | 0.29 | 0.00 | 89 | 1006.1 |
| 20260507065200 | 50 | 0 | 1.7 | 7.0 | 0.00 | 0.29 | 0.00 | 90 | 1006.1 |
| 20260507064700 | 50 | 0 | 1.7 | 7.0 | 0.00 | 0.29 | 0.00 | 89 | 1006.1 |
| 20260507064200 | 50 | 356 | 1.7 | 6.1 | 0.00 | 0.29 | 0.00 | 89 | 1005.9 |
| 20260507063701 | 50 | 338 | 1.7 | 7.0 | 0.00 | 0.29 | 0.00 | 89 | 1005.9 |
| 20260507063157 | 50 | 306 | 2.6 | 7.0 | 0.00 | 0.29 | 0.00 | 89 | 1005.9 |
| 20260507062657 | 50 | 322 | 1.7 | 6.1 | 0.00 | 0.29 | 0.00 | 89 | 1005.9 |
| 20260507062157 | 50 | 324 | 1.7 | 5.2 | 0.00 | 0.29 | 0.00 | 89 | 1005.9 |
| 20260507061658 | 50 | 307 | 1.7 | 6.1 | 0.00 | 0.29 | 0.00 | 89 | 1006.0 |
| 20260507061157 | 50 | 50 | 1.7 | 6.1 | 0.00 | 0.29 | 0.00 | 89 | 1006.0 |
| 20260507060918 | 50 | 309 | 1.7 | 6.1 | 0.00 | 0.29 | 0.00 | 89 | 1006.0 |
| 20260507060155 | 51 | 311 | 0.9 | 4.3 | 0.00 | 0.29 | 0.00 | 89 | 1006.1 |
| 20260507055655 | 51 | 0 | 0.9 | 4.3 | 0.00 | 0.29 | 0.00 | 90 | 1006.0 |
| 20260507055155 | 51 | 0 | 0.9 | 5.2 | 0.00 | 0.29 | 0.00 | 90 | 1006.1 |
| 20260507054655 | 51 | 291 | 1.7 | 6.1 | 0.00 | 0.29 | 0.00 | 90 | 1006.0 |
| 20260507054207 | 51 | 0 | 1.7 | 6.1 | 0.00 | 0.29 | 0.00 | 90 | 1006.0 |
| 20260507053655 | 51 | 0 | 1.7 | 8.7 | 0.00 | 0.29 | 0.00 | 90 | 1005.9 |
| 20260507053155 | 51 | 317 | 2.6 | 8.7 | 0.00 | 0.29 | 0.00 | 90 | 1006.1 |
| 20260507052655 | 51 | 0 | 1.7 | 8.7 | 0.00 | 0.29 | 0.00 | 90 | 1006.1 |
| 20260507052153 | 51 | 314 | 1.7 | 5.2 | 0.00 | 0.29 | 0.00 | 90 | 1006.1 |
| 20260507051653 | 51 | 201 | 1.7 | 5.2 | 0.00 | 0.29 | 0.00 | 90 | 1005.9 |
| 20260507051150 | 52 | 323 | 1.7 | 6.1 | 0.00 | 0.29 | 0.00 | 91 | 1005.7 |
| 20260507050650 | 52 | 50 | 1.7 | 6.1 | 0.00 | 0.29 | 0.00 | 90 | 1005.8 |
| 20260507050150 | 52 | 247 | 1.7 | 7.0 | 0.00 | 0.29 | 0.00 | 90 | 1005.7 |
| 20260507045650 | 52 | 321 | 1.7 | 7.0 | 0.00 | 0.29 | 0.00 | 90 | 1006.0 |
| 20260507045150 | 52 | 157 | 1.7 | 6.1 | 0.00 | 0.29 | 0.00 | 90 | 1006.0 |
| 20260507044651 | 53 | 78 | 0.9 | 4.3 | 0.00 | 0.29 | 0.00 | 91 | 1006.0 |
| 20260507044150 | 53 | 322 | 0.9 | 5.2 | 0.00 | 0.29 | 0.00 | 91 | 1006.0 |
| 20260507043650 | 53 | 273 | 0.9 | 5.2 | 0.00 | 0.29 | 0.00 | 91 | 1006.1 |
| 20260507043408 | 53 | 193 | 0.9 | 4.3 | 0.00 | 0.29 | 0.00 | 90 | 1006.1 |
| 20260507042650 | 53 | 340 | 0.9 | 4.3 | 0.00 | 0.29 | 0.00 | 90 | 1005.8 |
| 20260507042631 | 53 | 357 | 0.9 | 4.3 | 0.00 | 0.29 | 0.00 | 91 | 1005.8 |
| 20260507041650 | 53 | 0 | 0.9 | 4.3 | 0.00 | 0.29 | 0.00 | 90 | 1005.7 |
| 20260507041148 | 54 | 245 | 1.7 | 5.2 | 0.00 | 0.29 | 0.00 | 90 | 1005.7 |
| 20260507040912 | 54 | 298 | 1.7 | 6.1 | 0.00 | 0.29 | 0.00 | 90 | 1005.6 |
| 20260507040148 | 54 | 63 | 1.7 | 6.1 | 0.00 | 0.29 | 0.00 | 90 | 1005.7 |
| 20260507035648 | 55 | 257 | 1.7 | 5.2 | 0.00 | 0.29 | 0.29 | 90 | 1005.4 |
| 20260507035148 | 55 | 121 | 1.7 | 7.0 | 0.00 | 0.29 | 0.29 | 90 | 1005.3 |
| 20260507034647 | 55 | 219 | 1.7 | 7.0 | 0.00 | 0.29 | 0.29 | 89 | 1005.2 |
| 20260507034148 | 56 | 0 | 1.7 | 7.8 | 0.00 | 0.29 | 0.29 | 89 | 1005.3 |
| 20260507033648 | 56 | 16 | 1.7 | 7.8 | 0.00 | 0.29 | 0.29 | 88 | 1005.3 |
| 20260507033430 | 56 | 44 | 1.7 | 6.1 | 0.00 | 0.29 | 0.29 | 89 | 1005.3 |
| 20260507032649 | 57 | 318 | 2.6 | 7.8 | 0.00 | 0.29 | 0.29 | 90 | 1005.4 |
| 20260507032148 | 58 | 269 | 2.6 | 8.7 | 0.00 | 0.29 | 0.29 | 90 | 1005.5 |
| 20260507031645 | 58 | 315 | 1.7 | 8.7 | 0.00 | 0.29 | 0.29 | 92 | 1005.3 |
| 20260507031146 | 58 | 32 | 1.7 | 4.3 | 0.00 | 0.29 | 0.29 | 92 | 1005.2 |
| 20260507030646 | 59 | 317 | 1.7 | 7.8 | 0.00 | 0.29 | 0.29 | 92 | 1005.0 |
| 20260507030146 | 59 | 302 | 1.7 | 7.8 | 0.00 | 0.29 | 0.29 | 93 | 1004.9 |
| 20260507025645 | 59 | 210 | 0.9 | 7.8 | 0.00 | 0.29 | 0.29 | 94 | 1004.9 |
| 20260507025413 | 59 | 357 | 1.7 | 4.3 | 0.00 | 0.29 | 0.29 | 94 | 1004.8 |
| 20260507024646 | 59 | 353 | 0.9 | 4.3 | 0.00 | 0.29 | 0.29 | 94 | 1004.8 |
| 20260507024146 | 59 | 0 | 0.9 | 3.5 | 0.00 | 0.29 | 0.29 | 94 | 1004.6 |
| 20260507023645 | 59 | 0 | 0.9 | 3.5 | 0.00 | 0.29 | 0.29 | 94 | 1004.6 |
| 20260507023408 | 59 | 0 | 0.9 | 3.5 | 0.00 | 0.29 | 0.29 | 94 | 1004.5 |
| 20260507022646 | 59 | 175 | 0.9 | 3.5 | 0.00 | 0.29 | 0.29 | 94 | 1004.6 |
| 20260507022627 | 59 | 145 | 0.9 | 2.6 | 0.00 | 0.29 | 0.29 | 94 | 1004.5 |
| 20260507021643 | 59 | 328 | 0.9 | 2.6 | 0.00 | 0.29 | 0.29 | 94 | 1004.6 |
| 20260507021140 | 59 | 189 | 0.9 | 5.2 | 0.00 | 0.29 | 0.29 | 94 | 1004.6 |
| 20260507020640 | 59 | 0 | 0.9 | 5.2 | 0.00 | 0.29 | 0.29 | 94 | 1004.7 |
| 20260507020354 | 59 | 185 | 0.9 | 2.6 | 0.00 | 0.29 | 0.29 | 94 | 1004.8 |
| 20260507015637 | 59 | 0 | 0.9 | 2.6 | 0.00 | 0.29 | 0.29 | 94 | 1004.8 |
| 20260507015134 | 59 | 0 | 0.9 | 3.5 | 0.00 | 0.29 | 0.29 | 94 | 1004.8 |
| 20260507014635 | 59 | 0 | 0.9 | 3.5 | 0.00 | 0.29 | 0.29 | 94 | 1004.9 |
| 20260507014135 | 59 | 0 | 0.0 | 2.6 | 0.00 | 0.29 | 0.29 | 94 | 1004.9 |
| 20260507013634 | 59 | 222 | 0.9 | 3.5 | 0.00 | 0.29 | 0.29 | 94 | 1004.9 |
| 20260507013133 | 59 | 190 | 0.9 | 4.3 | 0.00 | 0.29 | 0.29 | 94 | 1004.9 |
| 20260507012634 | 59 | 204 | 0.0 | 4.3 | 0.00 | 0.29 | 0.29 | 94 | 1004.9 |
| 20260507012134 | 59 | 0 | 0.0 | 2.6 | 0.00 | 0.29 | 0.29 | 94 | 1004.9 |
| 20260507011634 | 59 | 201 | 0.9 | 2.6 | 0.00 | 0.29 | 0.29 | 94 | 1005.0 |
| 20260507011134 | 60 | 0 | 0.0 | 2.6 | 0.00 | 0.29 | 0.29 | 94 | 1004.9 |
| 20260507010634 | 60 | 0 | 0.9 | 5.2 | 0.00 | 0.29 | 0.29 | 94 | 1004.9 |
| 20260507010134 | 60 | 0 | 0.9 | 5.2 | 0.00 | 0.29 | 0.29 | 94 | 1004.9 |
| 20260507005634 | 60 | 264 | 0.9 | 3.5 | 0.00 | 0.29 | 0.29 | 94 | 1004.9 |
| 20260507005133 | 60 | 232 | 0.9 | 3.5 | 0.00 | 0.29 | 0.29 | 94 | 1004.9 |
| 20260507004633 | 60 | 183 | 0.9 | 3.5 | 0.01 | 0.29 | 0.29 | 94 | 1004.9 |
| 20260507004133 | 60 | 218 | 0.9 | 3.5 | 0.01 | 0.29 | 0.29 | 94 | 1005.0 |
| 20260507003632 | 60 | 0 | 0.9 | 3.5 | 0.01 | 0.29 | 0.29 | 94 | 1004.9 |
| 20260507003132 | 60 | 222 | 0.9 | 3.5 | 0.01 | 0.29 | 0.29 | 94 | 1004.8 |
| 20260507002853 | 60 | 0 | 0.9 | 3.5 | 0.01 | 0.29 | 0.29 | 94 | 1004.9 |
| 20260507002133 | 60 | 226 | 0.9 | 3.5 | 0.02 | 0.29 | 0.29 | 94 | 1004.8 |
| 20260507001633 | 60 | 0 | 0.9 | 3.5 | 0.02 | 0.29 | 0.29 | 94 | 1004.8 |
| 20260507001133 | 60 | 257 | 0.9 | 3.5 | 0.02 | 0.29 | 0.29 | 94 | 1004.7 |
| 20260507000633 | 60 | 0 | 0.0 | 2.6 | 0.02 | 0.29 | 0.29 | 94 | 1004.7 |
| 20260507000409 | 60 | 0 | 0.0 | 2.6 | 0.02 | 0.29 | 0.29 | 94 | 1004.7 |
| 20260506235856 | 60 | 0 | 0.9 | 5.2 | 0.02 | 0.29 | 0.29 | 94 | 1004.7 |
| 20260506235133 | 60 | 0 | 0.9 | 5.2 | 0.02 | 0.29 | 0.29 | 94 | 1004.7 |
| 20260506234631 | 60 | 241 | 0.9 | 4.3 | 0.01 | 0.28 | 0.28 | 94 | 1004.7 |
| 20260506234131 | 60 | 246 | 0.9 | 4.3 | 0.01 | 0.28 | 0.28 | 94 | 1004.6 |
| 20260506233633 | 60 | 0 | 0.9 | 3.5 | 0.01 | 0.28 | 0.28 | 94 | 1004.6 |
| 20260506233130 | 60 | 222 | 0.9 | 3.5 | 0.01 | 0.28 | 0.28 | 94 | 1004.6 |
| 20260506232852 | 60 | 261 | 0.9 | 3.5 | 0.01 | 0.28 | 0.28 | 94 | 1004.7 |
| 20260506232130 | 60 | 143 | 0.9 | 4.3 | 0.00 | 0.27 | 0.27 | 94 | 1004.8 |
| 20260506231630 | 60 | 0 | 0.9 | 4.3 | 0.00 | 0.27 | 0.27 | 93 | 1004.9 |
| 20260506231130 | 60 | 280 | 0.9 | 4.3 | 0.00 | 0.27 | 0.27 | 94 | 1004.9 |
| 20260506230630 | 60 | 266 | 0.9 | 2.6 | 0.00 | 0.27 | 0.27 | 94 | 1004.8 |
| 20260506230130 | 60 | 126 | 0.9 | 5.2 | 0.01 | 0.27 | 0.27 | 93 | 1004.8 |
| 20260506225630 | 60 | 0 | 1.7 | 5.2 | 0.02 | 0.27 | 0.27 | 93 | 1004.8 |
| 20260506225129 | 60 | 220 | 0.9 | 5.2 | 0.04 | 0.27 | 0.27 | 94 | 1004.8 |
| 20260506224847 | 60 | 0 | 0.9 | 4.3 | 0.04 | 0.27 | 0.27 | 94 | 1004.9 |
| 20260506224130 | 60 | 231 | 0.9 | 4.3 | 0.05 | 0.27 | 0.27 | 94 | 1004.9 |
| 20260506223631 | 60 | 131 | 1.7 | 4.3 | 0.05 | 0.27 | 0.27 | 94 | 1004.9 |
| 20260506223130 | 60 | 260 | 1.7 | 4.3 | 0.05 | 0.27 | 0.27 | 94 | 1005.0 |
| 20260506222630 | 60 | 238 | 0.9 | 3.5 | 0.06 | 0.27 | 0.27 | 94 | 1005.0 |
| 20260506222131 | 60 | 184 | 0.9 | 5.2 | 0.07 | 0.27 | 0.27 | 94 | 1005.0 |
| 20260506221630 | 60 | 229 | 0.9 | 5.2 | 0.07 | 0.27 | 0.27 | 94 | 1005.0 |
| 20260506221143 | 60 | 205 | 0.9 | 3.5 | 0.08 | 0.27 | 0.27 | 94 | 1005.0 |
| 20260506220630 | 60 | 205 | 0.9 | 3.5 | 0.08 | 0.27 | 0.27 | 94 | 1005.1 |
| 20260506220352 | 60 | 206 | 1.7 | 5.2 | 0.08 | 0.26 | 0.26 | 94 | 1005.2 |
| 20260506215629 | 60 | 188 | 1.7 | 5.2 | 0.07 | 0.25 | 0.25 | 93 | 1005.2 |
| 20260506215351 | 60 | 217 | 0.9 | 4.3 | 0.06 | 0.23 | 0.23 | 93 | 1005.2 |
| 20260506214631 | 60 | 248 | 0.9 | 3.5 | 0.06 | 0.23 | 0.23 | 93 | 1005.2 |
| 20260506214345 | 60 | 204 | 1.7 | 5.2 | 0.06 | 0.22 | 0.22 | 93 | 1005.3 |
| 20260506213627 | 60 | 220 | 1.7 | 7.0 | 0.07 | 0.22 | 0.22 | 93 | 1005.3 |
| 20260506213127 | 60 | 0 | 1.7 | 7.0 | 0.08 | 0.22 | 0.22 | 93 | 1005.3 |
| 20260506212627 | 60 | 225 | 1.7 | 5.2 | 0.08 | 0.22 | 0.22 | 93 | 1005.4 |
| 20260506212127 | 61 | 228 | 1.7 | 5.2 | 0.08 | 0.20 | 0.20 | 93 | 1005.3 |
| 20260506211627 | 61 | 0 | 1.7 | 4.3 | 0.07 | 0.20 | 0.20 | 93 | 1005.5 |
| 20260506211127 | 61 | 0 | 1.7 | 5.2 | 0.07 | 0.19 | 0.19 | 93 | 1005.4 |
| 20260506210627 | 61 | 141 | 1.7 | 5.2 | 0.07 | 0.19 | 0.19 | 93 | 1005.4 |
| 20260506210127 | 61 | 225 | 0.9 | 4.3 | 0.07 | 0.18 | 0.18 | 93 | 1005.4 |
| 20260506205627 | 62 | 0 | 1.7 | 4.3 | 0.07 | 0.18 | 0.18 | 93 | 1005.4 |
| 20260506205125 | 62 | 190 | 0.9 | 3.5 | 0.07 | 0.18 | 0.18 | 93 | 1005.4 |
| 20260506204625 | 62 | 0 | 0.9 | 3.5 | 0.06 | 0.17 | 0.17 | 93 | 1005.5 |
| 20260506204121 | 62 | 230 | 0.9 | 4.3 | 0.06 | 0.17 | 0.17 | 93 | 1005.5 |
| 20260506203622 | 62 | 172 | 0.9 | 4.3 | 0.04 | 0.15 | 0.15 | 93 | 1005.5 |
| 20260506203122 | 62 | 0 | 0.9 | 4.3 | 0.04 | 0.14 | 0.14 | 93 | 1005.6 |
| 20260506202622 | 62 | 0 | 1.7 | 4.3 | 0.04 | 0.13 | 0.13 | 93 | 1005.6 |
| 20260506202122 | 62 | 203 | 0.9 | 2.6 | 0.04 | 0.13 | 0.13 | 94 | 1005.5 |
| 20260506201621 | 62 | 0 | 0.0 | 2.6 | 0.04 | 0.12 | 0.12 | 94 | 1005.5 |
| 20260506201122 | 62 | 0 | 0.9 | 2.6 | 0.04 | 0.12 | 0.12 | 93 | 1005.5 |
| 20260506200622 | 62 | 0 | 0.0 | 1.7 | 0.04 | 0.11 | 0.11 | 93 | 1005.5 |
| 20260506200122 | 62 | 0 | 0.0 | 1.7 | 0.04 | 0.11 | 0.11 | 93 | 1005.3 |
| 20260506195622 | 62 | 0 | 0.0 | 1.7 | 0.04 | 0.11 | 0.11 | 93 | 1005.4 |
| 20260506195123 | 62 | 0 | 0.0 | 1.7 | 0.05 | 0.11 | 0.11 | 93 | 1005.5 |
| 20260506194619 | 62 | 228 | 0.0 | 2.6 | 0.06 | 0.11 | 0.11 | 92 | 1005.5 |
| 20260506194119 | 62 | 0 | 0.0 | 2.6 | 0.06 | 0.11 | 0.11 | 92 | 1005.4 |
| 20260506193616 | 62 | 0 | 0.0 | 1.7 | 0.06 | 0.11 | 0.11 | 92 | 1005.4 |
| 20260506193341 | 62 | 0 | 0.0 | 0.9 | 0.06 | 0.10 | 0.10 | 92 | 1005.5 |